Location: Newark
(11.5167°N, 104.8167°E)
Time: 23:18:45
(UTC+00:00)

Hubble Space Telescope - Visible Passes

Search period start: 12 November 2019 00:00
Search period end: 22 November 2019 00:00
Orbit: 536 x 540 km, 28.5° (Epoch: 12 November)

Date Brightness Start Highest point End Pass type
(mag) Time Alt. Az. Time Alt. Az. Time Alt. Az.
12 Nov 2.1 11:14:58 10° SSW 11:18:27 26° SSE 11:21:00 15° E visible
12 Nov 3.7 12:55:32 10° WSW 12:56:21 15° W 12:56:21 15° W visible
12 Nov 0.6 21:28:31 72° WSW 21:28:48 78° SSW 21:32:56 10° ESE visible
13 Nov 1.7 11:04:02 10° SW 11:07:51 36° SSE 11:11:14 12° E visible
13 Nov 3.3 12:45:09 10° W 12:46:35 19° W 12:46:35 19° W visible
13 Nov 1.3 21:18:45 50° S 21:18:45 50° S 21:22:16 10° SE visible
14 Nov 1.2 10:53:14 10° SW 10:57:15 52° SSE 11:01:16 10° ENE visible
14 Nov 3.0 12:34:51 10° W 12:36:48 22° WNW 12:36:48 22° WNW visible
14 Nov 2.3 21:08:59 29° SSE 21:08:59 29° SSE 21:11:28 10° SE visible
15 Nov 2.8 12:24:40 10° WNW 12:26:58 21° NW 12:26:58 21° NW visible
15 Nov 3.1 20:59:12 18° SSE 20:59:12 18° SSE 21:00:34 10° SSE visible
16 Nov 2.9 12:14:34 10° WNW 12:17:07 18° NNW 12:17:07 18° NNW visible
16 Nov 3.7 20:49:22 10° SSE 20:49:22 10° SSE 20:49:29 10° SSE visible
17 Nov 3.0 12:04:35 10° NW 12:07:01 15° NNW 12:07:13 15° NNW visible
18 Nov 3.1 11:54:45 10° NW 11:56:35 13° NNW 11:57:17 12° N visible
19 Nov 3.2 11:45:14 10° NNW 11:46:10 11° NNW 11:47:06 10° N visible
